Lima, OH

5:54 AM EST on February 25, 2017 (GMT -0500)
Lima Allen County

Weather History for KAOH - April, 2014

Change the Weather History Date:

Wednesday, April 16, 2014

  Actual Average (KFDY) Record (KFDY)
Temperature  
Mean Temperature 35 °F -  
Max Temperature 48 °F 61 °F 84 °F (2002)
Min Temperature 24 °F 39 °F 24 °F (2014)
Degree Days  
Heating Degree Days 30    
Moisture  
Dew Point 21 °F    
Average Humidity 57    
Maximum Humidity 81    
Minimum Humidity 41    
Precipitation  
Precipitation 0.00 in - - ()
Sea Level Pressure  
Sea Level Pressure 30.37 in    
Wind  
Wind Speed 5 mph (SE)    
Max Wind Speed 13 mph    
Max Gust Speed 21 mph    
Visibility 10 miles    
Events      
Averages and records for this station are not official NWS values.
T = Trace of Precipitation, MM = Missing Value Source: NWS Daily Summary

Daily Weather History Graph

Daily Weather History Graph

Search for Another Location

Airport or City:

Trip Planner

Search our weather history database for the weather conditions in past years. The results will help you decide how hot, cold, wet, or windy it might be!

Date:

Astronomy

Apr. 16, 2014 Rise Set
Actual Time 6:55 AM EDT 8:16 PM EDT
Civil Twilight 6:27 AM EDT 8:45 PM EDT
Nautical Twilight 5:53 AM EDT 9:19 PM EDT
Astronomical Twilight 5:17 AM EDT 9:55 PM EDT
Moon 9:59 PM EDT (4/16) 7:42 AM EDT (4/16)
Length of Visible Light 14h 17m
Length of Day
13h 20m
Full, 98% of the Moon is Illuminated
Apr 16
Full
Apr 22
Last Quarter
Apr 29
New
May 6
First Quarter
May 14
Full

Hourly Weather History & Observations

Time (EDT) Temp. Windchill Dew Point Humidity Pressure Visibility Wind Dir Wind Speed Gust Speed Precip Events Conditions
12:53 AM 28.0 °F 24.2 °F 14.0 °F 56% 30.28 in 10.0 mi North 3.5 mph - N/A   Clear
1:53 AM 28.0 °F - 12.9 °F 53% 30.28 in 10.0 mi Calm Calm - N/A   Clear
2:53 AM 26.1 °F - 16.0 °F 66% 30.30 in 10.0 mi Calm Calm - N/A   Clear
3:53 AM 25.0 °F - 18.0 °F 75% 30.32 in 10.0 mi Calm Calm - N/A   Clear
4:53 AM 25.0 °F 19.3 °F 18.0 °F 75% 30.35 in 10.0 mi South 4.6 mph - N/A   Clear
5:53 AM 24.1 °F 18.2 °F 19.0 °F 81% 30.38 in 10.0 mi South 4.6 mph - N/A   Clear
6:53 AM 24.1 °F 19.7 °F 19.0 °F 81% 30.40 in 10.0 mi SSE 3.5 mph - N/A   Clear
7:53 AM 28.0 °F 22.8 °F 16.0 °F 61% 30.42 in 10.0 mi SE 4.6 mph - N/A   Clear
8:53 AM 30.9 °F 23.5 °F 15.1 °F 52% 30.44 in 10.0 mi SE 8.1 mph - N/A   Clear
9:53 AM 34.0 °F 26.6 °F 14.0 °F 44% 30.45 in 10.0 mi SSE 9.2 mph - N/A   Clear
10:53 AM 36.0 °F 29.0 °F 14.0 °F 41% 30.45 in 10.0 mi SE 9.2 mph - N/A   Clear
11:53 AM 37.9 °F 31.5 °F 19.0 °F 47% 30.46 in 10.0 mi ESE 9.2 mph - N/A   Clear
12:53 PM 41.0 °F 34.7 °F 21.9 °F 47% 30.44 in 10.0 mi ESE 10.4 mph 17.3 mph N/A   Clear
2:53 PM 45.0 °F 39.7 °F 24.1 °F 44% 30.40 in 10.0 mi East 10.4 mph - N/A   Clear
3:53 PM 46.9 °F - 25.0 °F 42% 30.38 in 10.0 mi SE 12.7 mph 20.7 mph N/A   Clear
4:53 PM 46.9 °F - 25.0 °F 42% 30.35 in 10.0 mi ESE 10.4 mph 19.6 mph N/A   Clear
5:53 PM 46.9 °F - 25.0 °F 42% 30.34 in 10.0 mi ESE 12.7 mph - N/A   Clear
6:53 PM 46.9 °F - 25.0 °F 42% 30.33 in 10.0 mi ESE 11.5 mph - N/A   Clear
7:53 PM 45.0 °F 39.7 °F 26.1 °F 48% 30.32 in 10.0 mi ESE 10.4 mph - N/A   Clear
8:53 PM 39.9 °F 35.1 °F 28.0 °F 63% 30.32 in 10.0 mi East 6.9 mph - N/A   Clear
9:53 PM 37.0 °F 31.0 °F 28.0 °F 70% 30.33 in 10.0 mi East 8.1 mph - N/A   Clear
10:53 PM 37.9 °F 32.1 °F 28.0 °F 68% 30.33 in 10.0 mi East 8.1 mph - N/A   Clear
11:53 PM 36.0 °F 29.6 °F 27.0 °F 70% 30.33 in 10.0 mi East 8.1 mph - N/A   Clear